KUSHIRO_AIRPORT current weather conditions

sailwx.info

Wind at 0 knots

Air temperature -9.0° C
Visibility: greater than 5.4 NM
Dewpoint -14.0° C

Last reported at 2020-Jan-25 11:00 UTC.
Time now 2020-Jan-25 13:25 UTC

Location: N 43°02' E 144°11'.
View on Google Maps.

See reports from other nearby stations

  
Tides and Currents Weather Stations Pressure Air Temp Water Temp Dewpoint Dewpoint Depression Visibility Wind Speed Wind Dir Waves Ship Positions
date/time (UTC)wind fromknots sea level pressurealtimeterstation pressurevisibilityair tempwater tempwave heightnotes
2020-Jan-25 11:00 5.4-9.0
2020-Jan-25 10:00 030 2 5.4-8.0
2020-Jan-25 09:00 270 5 5.4-7.0
2020-Jan-25 08:00 260 9 5.4-6.0
2020-Jan-25 07:00 260 11 5.4-5.0
2020-Jan-25 06:00 290 12 5.4-4.0
2020-Jan-25 05:00 250 11 5.4-4.0
2020-Jan-25 04:00 250 6 5.4-4.0
2020-Jan-25 03:00 310 5 5.4-5.0
2020-Jan-25 02:00 360 2 5.4-5.0
2020-Jan-25 01:00 290 7 5.4-6.0
2020-Jan-25 00:00 280 6 5.4-8.0
2020-Jan-24 23:00 260 5 5.4-10.0
2020-Jan-24 22:00 260 5 5.4-10.0
2020-Jan-24 21:45 250 5 5.4-10.0
2020-Jan-24 11:00 290 6 5.4-6.0
2020-Jan-24 10:00 250 6 5.4-6.0
2020-Jan-24 09:00 260 11 5.4-5.0
2020-Jan-24 08:00 280 12 5.4-4.0
2020-Jan-24 07:00 250 13 5.4-3.0
2020-Jan-24 06:00 260 14 5.4-1.0
2020-Jan-24 05:00 270 14 gusting 26 5.4 1.0
2020-Jan-24 04:00 270 13 gusting 24 5.4 2.0
2020-Jan-24 03:00 210 7 5.4-0.0
2020-Jan-24 02:00 240 7 5.4-1.0
2020-Jan-24 01:00 330 6 5.4-3.0 Showers in the vicinity.
2020-Jan-24 00:00 5.4-3.0
2020-Jan-23 23:13 320 4 5.4-4.0
2020-Jan-23 23:00 020 2 5.4-4.0
2020-Jan-23 22:00 340 4 5.4-5.0
2020-Jan-23 21:45 330 4 5.4-5.0